Location: Newark
(15.4608°S, 41.1635°W)
Time: 10:44:35
(UTC+00:00)

Vanguard 3 - Pass Details

Date: 03 August 2021
Orbit: 510 x 3260 km, 33.3° (Epoch: 22 September)

Event Time Altitude Azimuth Distance (km) Brightness Sun altitude
Rises 06:14:31 0° 296° (WNW) 6,073 - -41.3°
Reaches altitude 10° 06:19:15 10° 294° (WNW) 4,630 - -40.2°
Maximum altitude 06:30:51 67° 213° (SSW) 1,432 - -37.4°
Exits shadow 06:33:47 38° 144° (SE) 1,654 8.7 -36.7°
Drops below altitude 10° 06:37:12 10° 130° (SE) 2,635 10.1 -35.9°
Sets 06:39:14 0° 126° (SE) 3,353 10.8 -35.4°
